{"data":{"norad_id":59531,"intl_designator":"2024-073W","name":"STARLINK-31619","alt_names":[],"object_type":"PAYLOAD","status":"ACTIVE","operator":null,"country":"US","launch_date":"2024-04-17","launch_site_code":"AFETR","launch_vehicle":null,"mission":null,"orbit_class":"UNKNOWN","rcs_meters":null,"size_class":null,"mass_kg":null,"dimensions":null,"purposes":["comms"],"wikipedia_slug":null,"has_3d_model":false,"image_url":null,"decayed_at":null,"tle_current":{"epoch":"2026-09-21T08:49:30.051552Z","epoch_age_seconds":93287,"freshness":"FRESH","line1":"1 59531U 24073W   26264.36770893  .00000684  00000+0  34357-4 0  9995","line2":"2 59531  43.0017 292.7958 0001036 268.7878  91.2855 15.27579338137223","mean_motion":15.27579338,"eccentricity":0.0001036,"inclination_deg":43.0017,"raan_deg":292.7958,"arg_perigee_deg":268.7878,"mean_anomaly_deg":91.2855,"bstar":3.4357e-5,"rev_number":13722,"period_min":94.266789565597,"perigee_km":482.34025922161,"apogee_km":483.76189739144,"semimajor_km":6861.1880783065,"source":"CELESTRAK","updated_at":"2026-09-22T09:00:48.966867Z"}}}